Regional Weather Roundup
Issued by NWS Cleveland, OH

Home | Current Version | Previous Version | Graphics & Text | Print | Product List | Glossary On
Versions: 1 2 3 4 5 6 7 8 9 10 11 12 13 14 15 16 17 18 19 20 21 22 23 24 25 26 27 28 29 30 31 32 33 34 35 36 37 38 39 40 41 42 43 44 45 46 47 48 49 50
000
ASUS41 KCLE 201410
RWRCLE
OHIO REGIONAL WEATHER ROUNDUP
NATIONAL WEATHER SERVICE CLEVELAND, OH
900 AM EST SAT JAN 20 2018

NOTE: "FAIR" INDICATES FEW OR NO CLOUDS BELOW 12,000 FEET WITH NO
SIGNIFICANT WEATHER AND/OR OBSTRUCTIONS TO VISIBILITY.

OHZ001>008-015>018-024>027-034-035-043-044-201500-
   NORTHWEST OHIO

CITY           SKY/WX    TMP DP  RH WIND       PRES   REMARKS
DEFIANCE       NOT AVBL
FINDLAY        FAIR      35  24  64 SW13      29.97R WCI  26
TOLEDO EXPRESS FAIR      33  26  75 SW13G21   29.94R WCI  24
TOLEDO EXEC    FAIR      32  25  75 SW12      29.96R WCI  23
LIMA           FAIR      33  25  72 SW13      29.98R WCI  24
$$

OHZ009>014-019>023-028>033-038-089-201500-
   NORTHEAST OHIO

CITY           SKY/WX    TMP DP  RH WIND       PRES   REMARKS
CLE-HOPKINS    PTSUNNY   38  25  59 SW13G22   29.98R
CLE-LAKEFRONT  FAIR      38  24  57 SW20G25   29.96R
CUY CO. ARPT   MOSUNNY   39  25  56 SW16      29.95R
LORAIN-ELYRIA  FAIR      34  21  59 SW15      29.97R WCI  24
ASHTABULA      FAIR      34  23  64 SW12      29.95R WCI  25
AKRON-CANTON   FAIR      34  22  61 SW16      29.99R WCI  24
WOOSTER        FAIR      32  23  69 SW13      30.00R WCI  22
MANSFIELD      FAIR      34  23  64 S15       29.98R WCI  24
YOUNGSTOWN     PTSUNNY   34  23  64 SW15G22   29.97R WCI  24
$$

OHZ042-051>053-060>062-070>072-077>081-201500-
  SOUTHWEST OHIO

CITY           SKY/WX    TMP DP  RH WIND       PRES   REMARKS
CINC-COVINGTON PTSUNNY   36  25  64 SW12      30.09R
CINC-LUNKEN    FAIR      37  25  61 SW14      30.12R
HAMILTON       FAIR      37  23  56 S6        30.10R
DAYTON         MOCLDY    32  23  69 SW14      30.04R WCI  22
WRIGHT-PAT AFB FAIR      34  16  47 SW16      30.04R WCI  24
DAYTON GENERAL FAIR      35  22  58 SW13G20   30.05R WCI  26
WILMINGTON     FAIR      33  24  69 SW16      30.07R WCI  23
$$

OHZ036-037-039>041-045>050-054>059-063>069-073>076-082>088-201500-
  CENTRAL AND SOUTHEAST OHIO

CITY           SKY/WX    TMP DP  RH WIND       PRES   REMARKS
COLUMBUS       PTSUNNY   34  24  67 SW9       30.06R WCI  27
OSU AIRPORT    FAIR      34  24  67 SW14      30.04R WCI  25
BOLTON FIELD   SUNNY     34  25  69 SW15G22   30.06R WCI  24
RICKENBACK AFB FAIR      33  25  72 SW14      30.06R WCI  23
NEWARK         FAIR      38  23  55 SW16G26   30.05R
MARION         FAIR      30  22  72 S10       30.01R WCI  21
LANCASTER      FAIR      37  25  61 SW12      30.07R
ZANESVILLE     FAIR      35  23  61 SW7       30.07R WCI  29
NEW PHILLY     NOT AVBL
$$




USA.gov is the U.S. government's official web portal to all federal, state and local government web resources and services.